Time,TemperatureF,DewpointF,PressureIn,WindDirection,WindDirectionDegrees,WindSpeedMPH,WindSpeedGustMPH,Humidity,HourlyPrecipIn,Conditions,Clouds,dailyrainin,SoftwareType,DateUTC
2013-02-05 00:00:00,29.0,-99.9,-100.00,WSW,248,2.0,6.0,-999,-99.99,,,-99.99,,2013-02-05 07:00:00,
2013-02-05 00:32:00,29.0,-99.9,-100.00,WSW,248,2.0,6.0,-999,-99.99,,,-99.99,,2013-02-05 07:32:00,
2013-02-05 00:42:00,29.0,-99.9,-100.00,WSW,248,2.0,6.0,-999,-99.99,,,-99.99,,2013-02-05 07:42:00,
2013-02-05 00:52:00,29.0,-99.9,-100.00,WSW,248,2.0,6.0,-999,-99.99,,,-99.99,,2013-02-05 07:52:00,
2013-02-05 01:32:00,25.0,-99.9,-100.00,NW,324,5.0,8.0,-999,-99.99,,,-99.99,,2013-02-05 08:32:00,
2013-02-05 02:00:00,29.0,-99.9,-100.00,WSW,244,3.0,5.0,-999,-99.99,,,-99.99,,2013-02-05 09:00:00,
2013-02-05 02:32:00,29.0,-99.9,-100.00,WSW,244,3.0,5.0,-999,-99.99,,,-99.99,,2013-02-05 09:32:00,
2013-02-05 02:42:00,29.0,-99.9,-100.00,WSW,244,3.0,5.0,-999,-99.99,,,-99.99,,2013-02-05 09:42:00,
2013-02-05 02:52:00,29.0,-99.9,-100.00,WSW,244,3.0,5.0,-999,-99.99,,,-99.99,,2013-02-05 09:52:00,
2013-02-05 03:00:00,29.0,-99.9,-100.00,North,358,2.0,3.0,-999,-99.99,,,-99.99,,2013-02-05 10:00:00,
2013-02-05 03:32:00,29.0,-99.9,-100.00,North,358,2.0,3.0,-999,-99.99,,,-99.99,,2013-02-05 10:32:00,
2013-02-05 03:43:00,29.0,-99.9,-100.00,North,358,2.0,3.0,-999,-99.99,,,-99.99,,2013-02-05 10:43:00,
2013-02-05 03:52:00,29.0,-99.9,-100.00,North,358,2.0,3.0,-999,-99.99,,,-99.99,,2013-02-05 10:52:00,
2013-02-05 04:00:00,25.0,-99.9,-100.00,NE,42,5.0,5.0,-999,-99.99,,,-99.99,,2013-02-05 11:00:00,
2013-02-05 04:32:00,25.0,-99.9,-100.00,NE,42,5.0,5.0,-999,-99.99,,,-99.99,,2013-02-05 11:32:00,
2013-02-05 04:42:00,25.0,-99.9,-100.00,NE,42,5.0,5.0,-999,-99.99,,,-99.99,,2013-02-05 11:42:00,
2013-02-05 04:53:00,25.0,-99.9,-100.00,NE,42,5.0,5.0,-999,-99.99,,,-99.99,,2013-02-05 11:53:00,
2013-02-05 05:32:00,19.0,-99.9,-100.00,East,97,9.0,12.0,-999,-99.99,,,-99.99,,2013-02-05 12:32:00,
2013-02-05 06:32:00,18.0,-99.9,-100.00,East,98,9.0,10.0,-999,-99.99,,,-99.99,,2013-02-05 13:32:00,
2013-02-05 07:32:00,21.0,-99.9,-100.00,East,92,8.0,9.0,-999,-99.99,,,-99.99,,2013-02-05 14:32:00,
2013-02-05 08:00:00,29.0,-99.9,-100.00,SW,221,6.0,11.0,-999,-99.99,,,-99.99,,2013-02-05 15:00:00,
2013-02-05 08:32:00,29.0,-99.9,-100.00,SW,221,6.0,11.0,-999,-99.99,,,-99.99,,2013-02-05 15:32:00,
2013-02-05 08:42:00,29.0,-99.9,-100.00,SW,221,6.0,11.0,-999,-99.99,,,-99.99,,2013-02-05 15:42:00,
2013-02-05 08:52:00,29.0,-99.9,-100.00,SW,221,6.0,11.0,-999,-99.99,,,-99.99,,2013-02-05 15:52:00,
2013-02-05 09:00:00,39.0,-99.9,-100.00,NNE,29,2.0,2.0,-999,-99.99,,,-99.99,,2013-02-05 16:00:00,
2013-02-05 09:33:00,39.0,-99.9,-100.00,NNE,29,2.0,2.0,-999,-99.99,,,-99.99,,2013-02-05 16:33:00,
2013-02-05 09:42:00,39.0,-99.9,-100.00,NNE,29,2.0,2.0,-999,-99.99,,,-99.99,,2013-02-05 16:42:00,
2013-02-05 09:52:00,39.0,-99.9,-100.00,NNE,29,2.0,2.0,-999,-99.99,,,-99.99,,2013-02-05 16:52:00,
2013-02-05 10:00:00,40.0,-99.9,-100.00,ESE,110,6.0,7.0,-999,-99.99,,,-99.99,,2013-02-05 17:00:00,
2013-02-05 10:33:00,40.0,-99.9,-100.00,ESE,110,6.0,7.0,-999,-99.99,,,-99.99,,2013-02-05 17:33:00,
2013-02-05 10:42:00,40.0,-99.9,-100.00,ESE,110,6.0,7.0,-999,-99.99,,,-99.99,,2013-02-05 17:42:00,
2013-02-05 10:53:00,40.0,-99.9,-100.00,ESE,110,6.0,7.0,-999,-99.99,,,-99.99,,2013-02-05 17:53:00,
2013-02-05 11:00:00,43.0,-99.9,-100.00,SE,145,13.0,17.0,-999,-99.99,,,-99.99,,2013-02-05 18:00:00,
2013-02-05 11:32:00,43.0,-99.9,-100.00,SE,145,13.0,17.0,-999,-99.99,,,-99.99,,2013-02-05 18:32:00,
2013-02-05 11:43:00,43.0,-99.9,-100.00,SE,145,13.0,17.0,-999,-99.99,,,-99.99,,2013-02-05 18:43:00,
2013-02-05 11:52:00,43.0,-99.9,-100.00,SE,145,13.0,17.0,-999,-99.99,,,-99.99,,2013-02-05 18:52:00,
2013-02-05 12:00:00,46.0,-99.9,-100.00,SSE,153,9.0,12.0,-999,-99.99,,,-99.99,,2013-02-05 19:00:00,
2013-02-05 12:32:00,46.0,-99.9,-100.00,SSE,153,9.0,12.0,-999,-99.99,,,-99.99,,2013-02-05 19:32:00,
2013-02-05 12:42:00,46.0,-99.9,-100.00,SSE,153,9.0,12.0,-999,-99.99,,,-99.99,,2013-02-05 19:42:00,
2013-02-05 12:52:00,46.0,-99.9,-100.00,SSE,153,9.0,12.0,-999,-99.99,,,-99.99,,2013-02-05 19:52:00,
2013-02-05 13:00:00,47.0,-99.9,-100.00,WSW,256,4.0,5.0,-999,-99.99,,,-99.99,,2013-02-05 20:00:00,
2013-02-05 13:32:00,47.0,-99.9,-100.00,WSW,256,4.0,5.0,-999,-99.99,,,-99.99,,2013-02-05 20:32:00,
2013-02-05 13:42:00,47.0,-99.9,-100.00,WSW,256,4.0,5.0,-999,-99.99,,,-99.99,,2013-02-05 20:42:00,
2013-02-05 13:52:00,47.0,-99.9,-100.00,WSW,256,4.0,5.0,-999,-99.99,,,-99.99,,2013-02-05 20:52:00,
2013-02-05 14:00:00,43.0,-99.9,-100.00,SW,222,22.0,27.0,-999,-99.99,,,-99.99,,2013-02-05 21:00:00,
2013-02-05 14:32:00,43.0,-99.9,-100.00,SW,222,22.0,27.0,-999,-99.99,,,-99.99,,2013-02-05 21:32:00,
2013-02-05 14:42:00,43.0,-99.9,-100.00,SW,222,22.0,27.0,-999,-99.99,,,-99.99,,2013-02-05 21:42:00,
2013-02-05 14:52:00,43.0,-99.9,-100.00,SW,222,22.0,27.0,-999,-99.99,,,-99.99,,2013-02-05 21:52:00,
2013-02-05 15:00:00,43.0,-99.9,-100.00,SW,221,23.0,25.0,-999,-99.99,,,-99.99,,2013-02-05 22:00:00,
2013-02-05 15:32:00,43.0,-99.9,-100.00,SW,221,23.0,25.0,-999,-99.99,,,-99.99,,2013-02-05 22:32:00,
2013-02-05 15:42:00,43.0,-99.9,-100.00,SW,221,23.0,25.0,-999,-99.99,,,-99.99,,2013-02-05 22:42:00,
2013-02-05 15:52:00,43.0,-99.9,-100.00,SW,221,23.0,25.0,-999,-99.99,,,-99.99,,2013-02-05 22:52:00,
2013-02-05 16:00:00,42.0,-99.9,-100.00,SW,216,21.0,25.0,-999,-99.99,,,-99.99,,2013-02-05 23:00:00,
2013-02-05 16:33:00,42.0,-99.9,-100.00,SW,216,21.0,25.0,-999,-99.99,,,-99.99,,2013-02-05 23:33:00,
2013-02-05 16:42:00,42.0,-99.9,-100.00,SW,216,21.0,25.0,-999,-99.99,,,-99.99,,2013-02-05 23:42:00,
2013-02-05 16:53:00,42.0,-99.9,-100.00,SW,216,21.0,25.0,-999,-99.99,,,-99.99,,2013-02-05 23:53:00,
2013-02-05 17:00:00,40.0,-99.9,-100.00,SW,236,14.0,19.0,-999,-99.99,,,-99.99,,2013-02-06 00:00:00,
2013-02-05 17:33:00,40.0,-99.9,-100.00,SW,236,14.0,19.0,-999,-99.99,,,-99.99,,2013-02-06 00:33:00,
2013-02-05 17:43:00,40.0,-99.9,-100.00,SW,236,14.0,19.0,-999,-99.99,,,-99.99,,2013-02-06 00:43:00,
2013-02-05 17:53:00,40.0,-99.9,-100.00,SW,236,14.0,19.0,-999,-99.99,,,-99.99,,2013-02-06 00:53:00,
2013-02-05 18:00:00,41.0,-99.9,-100.00,SSW,207,18.0,21.0,-999,-99.99,,,-99.99,,2013-02-06 01:00:00,
2013-02-05 18:33:00,41.0,-99.9,-100.00,SSW,207,18.0,21.0,-999,-99.99,,,-99.99,,2013-02-06 01:33:00,
2013-02-05 18:43:00,41.0,-99.9,-100.00,SSW,207,18.0,21.0,-999,-99.99,,,-99.99,,2013-02-06 01:43:00,
2013-02-05 18:53:00,41.0,-99.9,-100.00,SSW,207,18.0,21.0,-999,-99.99,,,-99.99,,2013-02-06 01:53:00,
2013-02-05 19:00:00,38.0,-99.9,-100.00,SSW,212,9.0,17.0,-999,-99.99,,,-99.99,,2013-02-06 02:00:00,
2013-02-05 19:32:00,38.0,-99.9,-100.00,SSW,212,9.0,17.0,-999,-99.99,,,-99.99,,2013-02-06 02:32:00,
2013-02-05 19:43:00,38.0,-99.9,-100.00,SSW,212,9.0,17.0,-999,-99.99,,,-99.99,,2013-02-06 02:43:00,
2013-02-05 19:53:00,38.0,-99.9,-100.00,SSW,212,9.0,17.0,-999,-99.99,,,-99.99,,2013-02-06 02:53:00,
2013-02-05 20:00:00,38.0,-99.9,-100.00,WSW,243,13.0,14.0,-999,-99.99,,,-99.99,,2013-02-06 03:00:00,
2013-02-05 20:33:00,38.0,-99.9,-100.00,WSW,243,13.0,14.0,-999,-99.99,,,-99.99,,2013-02-06 03:33:00,
2013-02-05 20:43:00,38.0,-99.9,-100.00,WSW,243,13.0,14.0,-999,-99.99,,,-99.99,,2013-02-06 03:43:00,
2013-02-05 20:53:00,38.0,-99.9,-100.00,WSW,243,13.0,14.0,-999,-99.99,,,-99.99,,2013-02-06 03:53:00,
2013-02-05 21:00:00,36.0,-99.9,-100.00,SSE,153,15.0,15.0,-999,-99.99,,,-99.99,,2013-02-06 04:00:00,
2013-02-05 21:32:00,36.0,-99.9,-100.00,SSE,153,15.0,15.0,-999,-99.99,,,-99.99,,2013-02-06 04:32:00,
2013-02-05 21:42:00,36.0,-99.9,-100.00,SSE,153,15.0,15.0,-999,-99.99,,,-99.99,,2013-02-06 04:42:00,
2013-02-05 21:52:00,36.0,-99.9,-100.00,SSE,153,15.0,15.0,-999,-99.99,,,-99.99,,2013-02-06 04:52:00,
2013-02-05 22:00:00,40.0,-99.9,-100.00,SW,220,14.0,18.0,-999,-99.99,,,-99.99,,2013-02-06 05:00:00,
2013-02-05 22:32:00,40.0,-99.9,-100.00,SW,220,14.0,18.0,-999,-99.99,,,-99.99,,2013-02-06 05:32:00,
2013-02-05 22:42:00,40.0,-99.9,-100.00,SW,220,14.0,18.0,-999,-99.99,,,-99.99,,2013-02-06 05:42:00,
2013-02-05 22:53:00,40.0,-99.9,-100.00,SW,220,14.0,18.0,-999,-99.99,,,-99.99,,2013-02-06 05:53:00,
2013-02-05 23:00:00,38.0,-99.9,-100.00,WSW,254,8.0,15.0,-999,-99.99,,,-99.99,,2013-02-06 06:00:00,
2013-02-05 23:32:00,38.0,-99.9,-100.00,WSW,254,8.0,15.0,-999,-99.99,,,-99.99,,2013-02-06 06:32:00,
2013-02-05 23:42:00,38.0,-99.9,-100.00,WSW,254,8.0,15.0,-999,-99.99,,,-99.99,,2013-02-06 06:42:00,
2013-02-05 23:52:00,38.0,-99.9,-100.00,WSW,254,8.0,15.0,-999,-99.99,,,-99.99,,2013-02-06 06:52:00,